Location: Tofino
(49.1330°N, 125.9000°W)
Time: 10:30:16
(UTC-08:00)

Envisat - Visible Passes

Search period start: 18 December 2017 00:00
Search period end: 28 December 2017 00:00
Orbit: 764 x 766 km, 98.2° (Epoch: 18 December)

Date Brightness Start Highest point End Pass type
(mag) Time Alt. Az. Time Alt. Az. Time Alt. Az.
18 Dec 5.5 19:36:56 10° N 19:36:56 10° N 19:37:02 10° N visible
19 Dec 5.8 07:33:10 10° NE 07:36:00 15° E 07:38:49 10° ESE visible
19 Dec 5.3 18:59:46 11° N 18:59:46 11° N 18:59:56 10° N visible
21 Dec 5.4 19:25:35 11° N 19:25:35 11° N 19:25:50 10° N visible
22 Dec 6.0 07:22:53 10° ENE 07:24:43 12° E 07:26:32 10° ESE visible
22 Dec 5.2 18:48:23 11° N 18:48:23 11° N 18:48:37 10° N visible
23 Dec 5.5 19:51:23 11° NNW 19:51:23 11° NNW 19:51:34 10° NNW visible
24 Dec 5.2 19:14:10 12° N 19:14:10 12° N 19:14:36 10° N visible
25 Dec 5.1 18:36:57 11° NNE 18:36:57 11° NNE 18:37:17 10° N visible
26 Dec 5.3 19:39:56 13° N 19:39:56 13° N 19:40:24 10° N visible
27 Dec 5.8 07:36:18 10° NE 07:39:25 16° E 07:42:31 10° SE visible
27 Dec 5.1 19:02:43 13° N 19:02:43 13° N 19:03:21 10° N visible
